Stanton, MN

10:31 AM CST on December 13, 2019 (GMT -0600)
Stanton

Weather History for KSYN - October, 2019

Change the Weather History Date:

Monday, October 28, 2019

  Actual Average (KLVN) Record (KLVN)
Temperature  
Mean Temperature 31 °F -  
Max Temperature 37 °F 52 °F 76 °F (1948)
Min Temperature 25 °F 33 °F 17 °F (1967)
Degree Days  
Heating Degree Days 34    
Moisture  
Dew Point 21 °F    
Average Humidity 67    
Maximum Humidity 87    
Minimum Humidity 43    
Precipitation  
Precipitation 0.00 in - - ()
Sea Level Pressure  
Sea Level Pressure 30.09 in    
Wind  
Wind Speed 8 mph ()    
Max Wind Speed 14 mph    
Max Gust Speed 17 mph    
Visibility 10.0 miles    
Events      
Averages and records for this station are not official NWS values.
T = Trace of Precipitation, MM = Missing Value Source: Averaged Metar Reports

Daily Weather History Graph

Daily Weather History Graph

Search for Another Location

Airport or City:

Astronomy

Oct. 28, 2019 Rise Set
Actual Time 7:43 AM CDT 6:07 PM CDT
Civil Twilight 7:13 AM CDT 6:37 PM CDT
Nautical Twilight 6:39 AM CDT 7:11 PM CDT
Astronomical Twilight 6:05 AM CDT 7:45 PM CDT
Moon 8:05 AM CDT (10/28) 6:52 PM CDT (10/28)
Length of Visible Light 11h 23m
Length of Day
10h 23m
New Moon, 0% of the Moon is Illuminated
Oct 28
New Moon
Nov 4
First Quarter
Nov 12
Full
Nov 19
Last Quarter
Nov 26
New

Hourly Weather History & Observations

Time (CDT) Temp. Windchill Dew Point Humidity Pressure Visibility Wind Dir Wind Speed Gust Speed Precip Events Conditions
12:15 AM 35.6 °F 27.5 °F 25.7 °F 67% 30.07 in 10.0 mi WNW 11.5 mph - N/A   Overcast
12:16 AM 35.6 °F 27.5 °F 25.7 °F 67% 30.07 in 10.0 mi WNW 11.5 mph - N/A   Overcast
12:35 AM 35.2 °F 26.2 °F 24.6 °F 65% 30.07 in 10.0 mi WNW 13.8 mph - N/A   Overcast
12:55 AM 34.7 °F 26.9 °F 23.7 °F 64% 30.08 in 10.0 mi WNW 10.4 mph - N/A   Overcast
12:56 AM 34.7 °F 27.5 °F 23.7 °F 64% 30.08 in 10.0 mi WNW 9.2 mph - N/A   Overcast
1:15 AM 34.0 °F 26.6 °F 23.9 °F 67% 30.08 in 10.0 mi WNW 9.2 mph - N/A   Overcast
1:16 AM 34.0 °F 26.6 °F 23.9 °F 67% 30.08 in 10.0 mi WNW 9.2 mph - N/A   Overcast
1:35 AM 33.8 °F 25.3 °F 23.9 °F 67% 30.08 in 10.0 mi WNW 11.5 mph 17.3 mph N/A   Overcast
1:36 AM 33.8 °F 25.3 °F 23.9 °F 67% 30.08 in 10.0 mi WNW 11.5 mph 17.3 mph N/A   Overcast
1:55 AM 32.7 °F 23.4 °F 24.4 °F 72% 30.07 in 10.0 mi WNW 12.7 mph - N/A   Mostly Cloudy
1:56 AM 32.5 °F 23.2 °F 24.4 °F 72% 30.07 in 10.0 mi WNW 12.7 mph - N/A   Mostly Cloudy
2:15 AM 31.8 °F 23.9 °F 24.3 °F 74% 30.08 in 10.0 mi West 9.2 mph - N/A   Scattered Clouds
2:16 AM 31.8 °F 23.9 °F 24.3 °F 74% 30.08 in 10.0 mi West 9.2 mph - N/A   Scattered Clouds
2:35 AM 30.7 °F 22.6 °F 24.3 °F 77% 30.08 in 10.0 mi West 9.2 mph - N/A   Clear
2:36 AM 30.7 °F 22.6 °F 24.1 °F 76% 30.08 in 10.0 mi West 9.2 mph - N/A   Clear
2:55 AM 29.8 °F 21.5 °F 23.9 °F 79% 30.08 in 10.0 mi West 9.2 mph - N/A   Clear
3:15 AM 29.3 °F 23.2 °F 23.2 °F 78% 30.08 in 10.0 mi West 5.8 mph - N/A   Clear
3:16 AM 29.3 °F 22.3 °F 23.0 °F 77% 30.08 in 10.0 mi West 6.9 mph - N/A   Clear
3:35 AM 28.8 °F 23.7 °F 23.0 °F 79% 30.08 in 10.0 mi West 4.6 mph - N/A   Clear
3:55 AM 28.4 °F 21.2 °F 23.0 °F 80% 30.08 in 10.0 mi West 6.9 mph - N/A   Clear
4:15 AM 28.2 °F 21.0 °F 23.0 °F 81% 30.08 in 10.0 mi West 6.9 mph - N/A   Clear
4:16 AM 28.2 °F 21.0 °F 23.0 °F 81% 30.08 in 10.0 mi West 6.9 mph - N/A   Clear
4:35 AM 28.4 °F 23.3 °F 22.6 °F 79% 30.08 in 10.0 mi West 4.6 mph - N/A   Clear
4:36 AM 28.2 °F 23.1 °F 22.6 °F 80% 30.08 in 10.0 mi West 4.6 mph - N/A   Clear
4:55 AM 27.5 °F 21.1 °F 22.3 °F 81% 30.08 in 10.0 mi West 5.8 mph - N/A   Clear
5:15 AM 27.1 °F 20.7 °F 22.1 °F 81% 30.08 in 10.0 mi West 5.8 mph - N/A   Clear
5:16 AM 27.1 °F 20.7 °F 22.1 °F 81% 30.08 in 10.0 mi West 5.8 mph - N/A   Clear
5:35 AM 27.3 °F 23.4 °F 22.3 °F 81% 30.07 in 10.0 mi West 3.5 mph - N/A   Clear
5:55 AM 26.6 °F 20.0 °F 22.1 °F 83% 30.08 in 10.0 mi West 5.8 mph - N/A   Clear
5:56 AM 26.6 °F 21.2 °F 22.1 °F 83% 30.08 in 10.0 mi West 4.6 mph - N/A   Clear
6:15 AM 26.4 °F 20.9 °F 21.9 °F 83% 30.08 in 10.0 mi West 4.6 mph - N/A   Clear
6:35 AM 27.0 °F 23.0 °F 21.2 °F 79% 30.08 in 10.0 mi WSW 3.5 mph - N/A   Clear
6:36 AM 26.8 °F 22.8 °F 21.2 °F 79% 30.08 in 10.0 mi WSW 3.5 mph - N/A   Clear
6:55 AM 25.9 °F 21.7 °F 21.4 °F 83% 30.08 in 10.0 mi WSW 3.5 mph - N/A   Clear
7:15 AM 25.3 °F 21.1 °F 21.2 °F 84% 30.08 in 10.0 mi SSW 3.5 mph - N/A   Clear
7:35 AM 25.3 °F 19.7 °F 21.7 °F 86% 30.09 in 10.0 mi South 4.6 mph - N/A   Mostly Cloudy
7:55 AM 26.1 °F 21.9 °F 21.9 °F 84% 30.10 in 10.0 mi SSW 3.5 mph - N/A   Overcast
8:15 AM 27.1 °F 21.8 °F 23.0 °F 84% 30.11 in 10.0 mi SW 4.6 mph - N/A   Overcast
8:16 AM 27.3 °F 22.0 °F 23.0 °F 84% 30.11 in 10.0 mi SW 4.6 mph - N/A   Overcast
8:35 AM 28.4 °F 23.3 °F 22.6 °F 79% 30.11 in 10.0 mi SW 4.6 mph - N/A   Overcast
8:36 AM 28.4 °F 23.3 °F 22.8 °F 80% 30.11 in 10.0 mi SW 4.6 mph - N/A   Overcast
9:15 AM 30.0 °F 24.1 °F 23.4 °F 76% 30.11 in 10.0 mi WSW 5.8 mph - N/A   Overcast
9:16 AM 30.0 °F 24.1 °F 23.4 °F 76% 30.11 in 10.0 mi WSW 5.8 mph - N/A   Overcast
9:35 AM 30.9 °F 25.2 °F 22.8 °F 72% 30.11 in 10.0 mi WSW 5.8 mph - N/A   Overcast
9:55 AM 31.6 °F 24.4 °F 22.5 °F 69% 30.12 in 10.0 mi WSW 8.1 mph - N/A   Overcast
9:56 AM 31.6 °F 24.4 °F 22.5 °F 69% 30.12 in 10.0 mi WSW 8.1 mph - N/A   Overcast
10:15 AM 32.0 °F 24.8 °F 21.2 °F 64% 30.12 in 10.0 mi WSW 8.1 mph - N/A   Mostly Cloudy
10:16 AM 32.2 °F 25.0 °F 21.2 °F 64% 30.12 in 10.0 mi WSW 8.1 mph - N/A   Mostly Cloudy
10:35 AM 32.9 °F 24.1 °F 19.6 °F 58% 30.12 in 10.0 mi West 11.5 mph - N/A   Scattered Clouds
10:55 AM 33.4 °F 29.1 °F 18.5 °F 54% 30.11 in 10.0 mi West 4.6 mph - N/A   Scattered Clouds
11:15 AM 33.8 °F 26.4 °F 18.7 °F 54% 30.11 in 10.0 mi West 9.2 mph - N/A   Mostly Cloudy
11:16 AM 33.8 °F 26.4 °F 18.3 °F 53% 30.11 in 10.0 mi West 9.2 mph - N/A   Mostly Cloudy
11:35 AM 33.6 °F 25.6 °F 18.9 °F 55% 30.10 in 10.0 mi West 10.4 mph - N/A   Mostly Cloudy
11:55 AM 33.3 °F 25.1 °F 18.3 °F 54% 30.09 in 10.0 mi WNW 10.4 mph - N/A   Mostly Cloudy
12:15 PM 34.2 °F 26.8 °F 18.5 °F 53% 30.10 in 10.0 mi WNW 9.2 mph 16.1 mph N/A   Mostly Cloudy
12:35 PM 34.9 °F 26.2 °F 19.0 °F 52% 30.10 in 10.0 mi West 12.7 mph - N/A   Mostly Cloudy
12:55 PM 34.5 °F 27.9 °F 17.8 °F 50% 30.10 in 10.0 mi West 8.1 mph - N/A   Scattered Clouds
12:56 PM 34.7 °F 26.4 °F 18.3 °F 51% 30.09 in 10.0 mi West 11.5 mph - N/A   Scattered Clouds
1:15 PM 35.1 °F 27.9 °F 16.7 °F 47% 30.08 in 10.0 mi West 9.2 mph - N/A   Scattered Clouds
1:16 PM 34.9 °F 26.6 °F 16.9 °F 48% 30.08 in 10.0 mi West 11.5 mph - N/A   Scattered Clouds
1:35 PM 35.6 °F 30.7 °F 16.7 °F 46% 30.09 in 10.0 mi West 5.8 mph - N/A   Scattered Clouds
1:55 PM 36.7 °F 30.5 °F 17.1 °F 45% 30.07 in 10.0 mi WNW 8.1 mph - N/A   Scattered Clouds
1:56 PM 36.5 °F 29.7 °F 17.1 °F 45% 30.07 in 10.0 mi WNW 9.2 mph - N/A   Scattered Clouds
2:15 PM 37.2 °F 30.6 °F 17.1 °F 44% 30.07 in 10.0 mi West 9.2 mph - N/A   Clear
2:35 PM 36.9 °F 31.4 °F 16.2 °F 43% 30.07 in 10.0 mi WSW 6.9 mph - N/A   Clear
2:36 PM 36.9 °F 30.1 °F 16.0 °F 43% 30.07 in 10.0 mi WSW 9.2 mph - N/A   Clear
2:55 PM 36.5 °F 30.3 °F 17.8 °F 47% 30.06 in 10.0 mi WNW 8.1 mph - N/A   Scattered Clouds
3:35 PM 36.0 °F 30.3 °F 16.9 °F 46% 30.06 in 10.0 mi West 6.9 mph - N/A   Clear
3:36 PM 36.0 °F 31.1 °F 17.1 °F 46% 30.05 in 10.0 mi West 5.8 mph - N/A   Clear
3:55 PM 35.6 °F 29.2 °F 17.1 °F 47% 30.06 in 10.0 mi WNW 8.1 mph - N/A   Clear
4:15 PM 35.2 °F 28.8 °F 16.0 °F 45% 30.06 in 10.0 mi WNW 8.1 mph - N/A   Mostly Cloudy
4:35 PM 34.9 °F 28.3 °F 15.3 °F 45% 30.06 in 10.0 mi West 8.1 mph - N/A   Overcast
4:55 PM 34.7 °F 28.8 °F 15.8 °F 46% 30.06 in 10.0 mi West 6.9 mph - N/A   Overcast
4:56 PM 34.7 °F 28.8 °F 16.0 °F 46% 30.07 in 10.0 mi West 6.9 mph - N/A   Overcast
5:15 PM 34.7 °F 28.8 °F 15.1 °F 45% 30.07 in 10.0 mi West 6.9 mph - N/A   Overcast
5:35 PM 34.2 °F 29.0 °F 16.5 °F 49% 30.07 in 10.0 mi West 5.8 mph - N/A   Overcast
5:36 PM 34.2 °F 30.0 °F 16.5 °F 49% 30.07 in 10.0 mi West 4.6 mph - N/A   Overcast
5:55 PM 33.8 °F 29.6 °F 16.0 °F 48% 30.08 in 10.0 mi West 4.6 mph - N/A   Overcast
5:56 PM 34.0 °F 28.8 °F 15.8 °F 47% 30.08 in 10.0 mi West 5.8 mph - N/A   Overcast
6:15 PM 33.8 °F 29.6 °F 14.7 °F 46% 30.08 in 10.0 mi WSW 4.6 mph - N/A   Overcast
6:35 PM 32.9 °F - 17.1 °F 52% 30.08 in 10.0 mi Calm Calm - N/A   Overcast
6:55 PM 32.9 °F 29.8 °F 18.3 °F 55% 30.09 in 10.0 mi SSE 3.5 mph - N/A   Overcast
6:56 PM 32.9 °F - 18.3 °F 55% 30.09 in 10.0 mi Calm Calm - N/A   Overcast
7:35 PM 32.0 °F 25.6 °F 20.5 °F 63% 30.08 in 10.0 mi SSE 6.9 mph - N/A   Overcast
7:55 PM 31.3 °F 23.9 °F 23.5 °F 73% 30.10 in 10.0 mi SSE 8.1 mph - N/A   Overcast
8:15 PM 30.4 °F 23.6 °F 25.0 °F 80% 30.08 in 10.0 mi SSE 6.9 mph - N/A   Overcast
8:16 PM 30.4 °F 23.6 °F 25.2 °F 81% 30.08 in 10.0 mi South 6.9 mph - N/A   Overcast
8:35 PM 30.0 °F 23.2 °F 25.5 °F 83% 30.09 in 10.0 mi South 6.9 mph - N/A   Overcast
8:55 PM 30.0 °F 25.2 °F 25.7 °F 84% 30.08 in 10.0 mi South 4.6 mph - N/A   Overcast
8:56 PM 30.0 °F 25.2 °F 25.7 °F 84% 30.08 in 10.0 mi South 4.6 mph - N/A   Overcast
9:15 PM 30.0 °F 25.2 °F 25.7 °F 84% 30.09 in 10.0 mi South 4.6 mph - N/A   Overcast
9:35 PM 30.0 °F 25.2 °F 26.1 °F 85% 30.09 in 10.0 mi South 4.6 mph - N/A   Overcast
9:55 PM 30.2 °F 23.4 °F 26.2 °F 85% 30.10 in 10.0 mi SSE 6.9 mph - N/A   Overcast
10:15 PM 30.2 °F 22.6 °F 26.2 °F 85% 30.10 in 10.0 mi South 8.1 mph - N/A   Overcast
10:35 PM 30.2 °F 25.4 °F 26.1 °F 85% 30.10 in 10.0 mi South 4.6 mph - N/A   Overcast
10:36 PM 30.2 °F 24.3 °F 26.1 °F 85% 30.10 in 10.0 mi South 5.8 mph - N/A   Overcast
10:55 PM 30.2 °F 24.3 °F 26.1 °F 85% 30.11 in 10.0 mi South 5.8 mph - N/A   Overcast
11:15 PM 30.0 °F 23.2 °F 26.4 °F 86% 30.11 in 10.0 mi South 6.9 mph - N/A   Overcast
11:35 PM 30.0 °F 25.2 °F 26.6 °F 87% 30.12 in 10.0 mi South 4.6 mph - N/A   Overcast
11:55 PM 30.2 °F 25.4 °F 26.6 °F 86% 30.13 in 10.0 mi SSW 4.6 mph - N/A   Overcast